Terug naar catalogus

STARLINK-30934

ActiefCommunicatieVLEO
NORAD 58395·PAYLOAD·🇺🇸 United States

Gelanceerd Nov 20, 2023 vanaf Vandenberg Space Force Base

Loading…

Volgende Passages (komende 24 uur)

TLE

VersSource: CelesTrak SupGP

Epoch: Sep 15, 2026, 01:41 UTC

1 58395C 23178X   26258.07062500 -.00001564  00000+0 -46173-4 0  2584
2 58395  53.1576 197.4552 0001437  94.8877 258.7938 15.34418850    12

Volg STARLINK-30934 in realtime met AllMySat

Download on the App Store